| time (UTC) | temp C | wind direction | speed KPH | gust KPH | rain 1hr cm | rain 24hr cm | rain mn cm | humidity % | barometer mb |
| 20260507051556 | 4 | 272 | 1.6 | 9.7 | 0.00 | 0.00 | 0.00 | 68 | 1010.8 |
| 20260507050053 | 4 | 292 | 1.6 | 4.8 | 0.00 | 0.00 | 0.00 | 67 | 1010.5 |
| 20260507044552 | 5 | 293 | 0.0 | 4.8 | 0.00 | 0.00 | 0.00 | 67 | 1010.4 |
| 20260507043058 | 5 | 359 | 3.2 | 11.3 | 0.00 | 0.00 | 0.00 | 66 | 1010.3 |
| 20260507041600 | 5 | 247 | 4.8 | 9.7 | 0.00 | 0.00 | 0.00 | 65 | 1010.2 |
| 20260507040054 | 5 | 332 | 4.8 | 14.5 | 0.00 | 0.00 | 0.00 | 64 | 1010.1 |
| 20260507034549 | 5 | 324 | 6.4 | 11.3 | 0.00 | 0.00 | 0.00 | 63 | 1009.9 |
| 20260507033046 | 6 | 328 | 6.4 | 19.3 | 0.00 | 0.00 | 0.00 | 61 | 1009.7 |
| 20260507031543 | 7 | 332 | 8.0 | 14.5 | 0.00 | 0.00 | 0.00 | 59 | 1009.4 |
| 20260507030042 | 7 | 44 | 8.0 | 14.5 | 0.00 | 0.00 | 0.00 | 58 | 1009.2 |
| 20260507024540 | 8 | 359 | 9.7 | 19.3 | 0.00 | 0.00 | 0.00 | 56 | 1009.1 |
| 20260507023038 | 8 | 314 | 1.6 | 12.9 | 0.00 | 0.00 | 0.00 | 53 | 1008.9 |
| 20260507021537 | 8 | 318 | 4.8 | 12.9 | 0.00 | 0.00 | 0.00 | 48 | 1008.8 |
| 20260507020035 | 9 | 284 | 4.8 | 14.5 | 0.00 | 0.00 | 0.00 | 44 | 1008.7 |
| 20260507014548 | 9 | 239 | 6.4 | 17.7 | 0.00 | 0.00 | 0.00 | 39 | 1008.6 |
| 20260507013043 | 9 | 246 | 8.0 | 17.7 | 0.00 | 0.00 | 0.00 | 39 | 1008.6 |
| 20260507011538 | 10 | 288 | 11.3 | 22.5 | 0.00 | 0.00 | 0.00 | 37 | 1008.5 |
| 20260507010034 | 9 | 272 | 3.2 | 19.3 | 0.00 | 0.00 | 0.00 | 40 | 1008.5 |
| 20260507004531 | 9 | 267 | 6.4 | 27.4 | 0.00 | 0.00 | 0.00 | 40 | 1008.3 |
| 20260507003030 | 9 | 254 | 16.1 | 30.6 | 0.00 | 0.00 | 0.00 | 39 | 1008.2 |
| 20260507001528 | 9 | 221 | 4.8 | 22.5 | 0.00 | 0.00 | 0.00 | 40 | 1008.2 |
| 20260507000031 | 9 | 270 | 11.3 | 22.5 | 0.00 | 0.00 | 0.00 | 39 | 1008.1 |
| 20260506234529 | 10 | 273 | 8.0 | 24.1 | 0.00 | 0.00 | 0.00 | 37 | 1008.1 |
| 20260506233029 | 10 | 359 | 11.3 | 22.5 | 0.00 | 0.00 | 0.00 | 37 | 1008.0 |
| 20260506231526 | 10 | 237 | 4.8 | 16.1 | 0.00 | 0.00 | 0.00 | 37 | 1008.1 |
| 20260506230024 | 10 | 283 | 8.0 | 24.1 | 0.00 | 0.00 | 0.00 | 38 | 1008.1 |
| 20260506224523 | 10 | 245 | 6.4 | 19.3 | 0.00 | 0.00 | 0.00 | 40 | 1008.2 |
| 20260506223021 | 10 | 278 | 6.4 | 14.5 | 0.00 | 0.00 | 0.00 | 42 | 1008.1 |
| 20260506221518 | 9 | 287 | 4.8 | 14.5 | 0.00 | 0.00 | 0.00 | 42 | 1008.2 |
| 20260506220018 | 9 | 249 | 8.0 | 16.1 | 0.00 | 0.00 | 0.00 | 42 | 1008.2 |
| 20260506214518 | 8 | 317 | 3.2 | 12.9 | 0.00 | 0.00 | 0.00 | 43 | 1008.1 |
| 20260506213016 | 8 | 265 | 11.3 | 19.3 | 0.00 | 0.00 | 0.00 | 45 | 1008.1 |
| 20260506211515 | 9 | 187 | 11.3 | 19.3 | 0.00 | 0.00 | 0.00 | 46 | 1008.1 |
| 20260506210015 | 8 | 181 | 4.8 | 14.5 | 0.00 | 0.00 | 0.00 | 47 | 1008.0 |
| 20260506204512 | 8 | 153 | 6.4 | 16.1 | 0.00 | 0.00 | 0.00 | 48 | 1008.0 |
| 20260506203011 | 8 | 207 | 6.4 | 16.1 | 0.00 | 0.00 | 0.00 | 49 | 1008.0 |
| 20260506201510 | 8 | 213 | 8.0 | 16.1 | 0.00 | 0.00 | 0.00 | 47 | 1008.0 |
| 20260506200009 | 8 | 108 | 11.3 | 19.3 | 0.00 | 0.00 | 0.00 | 49 | 1007.9 |
| 20260506194511 | 8 | 138 | 1.6 | 14.5 | 0.00 | 0.00 | 0.00 | 52 | 1008.0 |
| 20260506193005 | 7 | 197 | 8.0 | 16.1 | 0.00 | 0.00 | 0.00 | 51 | 1008.1 |
| 20260506191505 | 7 | 194 | 8.0 | 16.1 | 0.00 | 0.00 | 0.00 | 51 | 1008.1 |
| 20260506190003 | 7 | 160 | 8.0 | 14.5 | 0.00 | 0.00 | 0.00 | 53 | 1008.1 |
| 20260506184502 | 7 | 179 | 4.8 | 17.7 | 0.00 | 0.00 | 0.00 | 53 | 1008.2 |
| 20260506183102 | 7 | 242 | 6.4 | 14.5 | 0.00 | 0.00 | 0.00 | 53 | 1008.2 |
| 20260506181557 | 7 | 262 | 1.6 | 9.7 | 0.00 | 0.00 | 0.00 | 55 | 1008.2 |
| 20260506180104 | 6 | 232 | 4.8 | 8.0 | 0.00 | 0.00 | 0.00 | 56 | 1008.3 |
| 20260506174551 | 6 | 250 | 1.6 | 4.8 | 0.00 | 0.00 | 0.00 | 59 | 1008.3 |
| 20260506173106 | 6 | 359 | 3.2 | 14.5 | 0.00 | 0.00 | 0.00 | 58 | 1008.3 |
| 20260506171552 | 5 | 283 | 1.6 | 6.4 | 0.00 | 0.00 | 0.00 | 62 | 1008.3 |
| 20260506170046 | 5 | 246 | 3.2 | 11.3 | 0.00 | 0.00 | 0.00 | 61 | 1008.2 |
| 20260506164545 | 5 | 209 | 3.2 | 11.3 | 0.00 | 0.00 | 0.00 | 62 | 1008.1 |
| 20260506163048 | 5 | 220 | 3.2 | 9.7 | 0.00 | 0.00 | 0.00 | 61 | 1007.9 |
| 20260506161552 | 5 | 228 | 1.6 | 8.0 | 0.00 | 0.00 | 0.00 | 66 | 1007.9 |
| 20260506160039 | 5 | 256 | 0.0 | 4.8 | 0.00 | 0.00 | 0.00 | 64 | 1007.9 |
| 20260506154538 | 4 | 201 | 1.6 | 12.9 | 0.00 | 0.00 | 0.00 | 64 | 1007.7 |
| 20260506153038 | 4 | 179 | 0.0 | 11.3 | 0.00 | 0.00 | 0.00 | 64 | 1007.6 |
| 20260506151535 | 3 | 210 | 3.2 | 11.3 | 0.00 | 0.00 | 0.00 | 67 | 1007.4 |
| 20260506150036 | 2 | 201 | 4.8 | 14.5 | 0.00 | 0.00 | 0.00 | 71 | 1007.4 |
| 20260506144532 | 2 | 21 | 0.0 | 0.0 | 0.00 | 0.00 | 0.00 | 75 | 1007.3 |
| 20260506143031 | 2 | 21 | 0.0 | 4.8 | 0.00 | 0.00 | 0.00 | 74 | 1007.2 |
| 20260506141528 | 2 | 21 | 1.6 | 4.8 | 0.00 | 0.00 | 0.00 | 73 | 1007.1 |
| 20260506140027 | 1 | 206 | 3.2 | 11.3 | 0.00 | 0.00 | 0.00 | 72 | 1007.0 |
| 20260506134600 | 1 | 168 | 1.6 | 8.0 | 0.00 | 0.00 | 0.00 | 74 | 1007.0 |
| 20260506133024 | 1 | 201 | 1.6 | 8.0 | 0.00 | 0.00 | 0.00 | 74 | 1006.9 |
| 20260506131527 | 1 | 216 | 3.2 | 6.4 | 0.00 | 0.00 | 0.00 | 73 | 1006.9 |
| 20260506130020 | 1 | 330 | 0.0 | 6.4 | 0.00 | 0.00 | 0.00 | 72 | 1006.9 |
| 20260506124518 | 1 | 233 | 0.0 | 0.0 | 0.00 | 0.00 | 0.00 | 71 | 1006.8 |
| 20260506123014 | 2 | 231 | 0.0 | 0.0 | 0.00 | 0.00 | 0.00 | 68 | 1006.8 |
| 20260506121512 | 2 | 232 | 4.8 | 6.4 | 0.00 | 0.00 | 0.00 | 66 | 1006.5 |
| 20260506120012 | 3 | 359 | 0.0 | 6.4 | 0.00 | 0.00 | 0.00 | 66 | 1006.4 |
| 20260506114519 | 3 | 212 | 4.8 | 8.0 | 0.00 | 0.00 | 0.00 | 58 | 1006.1 |
| 20260506113008 | 4 | 271 | 0.0 | 9.7 | 0.00 | 0.00 | 0.00 | 56 | 1006.1 |
| 20260506111506 | 4 | 206 | 4.8 | 12.9 | 0.00 | 0.00 | 0.00 | 59 | 1006.0 |
| 20260506110011 | 4 | 224 | 3.2 | 12.9 | 0.00 | 0.00 | 0.00 | 62 | 1005.9 |
| 20260506104504 | 4 | 197 | 6.4 | 11.3 | 0.00 | 0.00 | 0.00 | 63 | 1005.9 |
| 20260506103009 | 3 | 220 | 6.4 | 12.9 | 0.00 | 0.00 | 0.00 | 63 | 1005.9 |
| 20260506101600 | 3 | 242 | 3.2 | 9.7 | 0.00 | 0.00 | 0.00 | 64 | 1005.8 |
| 20260506100101 | 2 | 177 | 1.6 | 8.0 | 0.00 | 0.00 | 0.00 | 67 | 1005.5 |
| 20260506094554 | 2 | 299 | 0.0 | 3.2 | 0.00 | 0.00 | 0.00 | 66 | 1005.6 |
| 20260506093055 | 2 | 299 | 0.0 | 0.0 | 0.00 | 0.00 | 0.00 | 67 | 1005.3 |
| 20260506091548 | 3 | 359 | 0.0 | 3.2 | 0.00 | 0.00 | 0.00 | 63 | 1005.2 |
| 20260506090045 | 3 | 299 | 0.0 | 6.4 | 0.00 | 0.00 | 0.00 | 60 | 1004.9 |
| 20260506084542 | 3 | 247 | 0.0 | 3.2 | 0.00 | 0.00 | 0.00 | 64 | 1004.6 |
| 20260506083042 | 4 | 248 | 0.0 | 4.8 | 0.00 | 0.00 | 0.00 | 57 | 1004.6 |
| 20260506081543 | 4 | 359 | 6.4 | 12.9 | 0.00 | 0.00 | 0.00 | 55 | 1004.2 |
| 20260506073032 | 6 | 359 | 0.0 | 6.4 | 0.00 | 0.00 | 0.00 | 52 | 1003.6 |
| 20260506071526 | 6 | 239 | 4.8 | 11.3 | 0.00 | 0.00 | 0.00 | 48 | 1003.5 |
| 20260506061533 | 6 | 207 | 1.6 | 8.0 | 0.00 | 0.00 | 0.00 | 48 | 1003.1 |